Weather observations for the past three days for
Elizabeth City C/G Regional Airport
Imperial (Metric)
Date Time (edt) Wind (mph) Vis. (mi.) Weather Sky Cond. Temperature (ºF) Relative Humidity Wind Chill (°F) Heat Index (°F) Pressure Precipitation (in)
Air Dwpt 6 hour altimeter (in) sea level (mb) 1 hr 3 hr 6 hr
Max. Min.
20 18:54 SE 9 10.00 Fair CLR 81 64 57% 83 30.28 1025.3
20 17:54 SE 12 10.00 Fair CLR 82 63 53% 83 30.29 1025.5
20 16:54 SE 10 10.00 Fair CLR 82.9 64 53% 84 30.3 1025.9
20 15:54 SE 10 10.00 Fair CLR 84 63 49% 85 30.31 1026.5
20 14:54 SE 9 10.00 Fair CLR 84 62.1 48% 85 30.33 1026.9
20 13:54 E 12 10.00 Fair CLR 84 63 86 77 49% 85 30.34 1027.2
20 12:54 SE 10 10.00 Fair CLR 84 64.9 53% 86 30.35 1027.7
20 11:54 E 10 10.00 A Few Clouds FEW041 82.9 64 53% 84 30.36 1028.1
20 10:54 E 9 10.00 A Few Clouds FEW038 82.9 64.9 55% 85 30.36 1027.8
20 09:54 E 8 10.00 Fair CLR 82 64.9 56% 84 30.36 1027.9
20 08:54 E 6 10.00 Fair CLR 80.1 66.9 64% 82 30.36 1027.9
20 07:54 E 6 10.00 Fair CLR 77 69.1 77 66 77% 79 30.35 1027.6
20 06:54 E 6 10.00 Fair CLR 73.9 70 88% 30.33 1027.1
20 05:54 Calm 10.00 Fair CLR 71.1 68 90% 30.33 1026.9
20 04:54 E 3 10.00 Fair CLR 71.1 68 90% 30.32 1026.6
20 03:54 Calm 10.00 A Few Clouds FEW026 66.9 66 97% 30.31 1026.4
20 02:54 Calm 10.00 Fair CLR 69.1 66.9 93% 30.3 1026.1
20 01:54 E 3 10.00 Fair CLR 72 68 78.1 71.1 87% 30.3 1026.0
20 00:54 E 3 10.00 Fair CLR 72 68 87% 30.31 1026.5
19 23:54 E 3 10.00 Fair CLR 72 68 87% 30.32 1026.7
19 22:54 E 5 10.00 Fair CLR 73.9 66.9 79% 30.34 1027.2
19 21:54 E 8 10.00 Fair CLR 73.9 66.9 79% 30.34 1027.3
19 20:54 E 7 10.00 Fair CLR 75 66 74% 76 30.33 1026.9
19 19:54 E 7 10.00 Fair CLR 78.1 64 86 78.1 62% 80 30.32 1026.8
19 18:54 E 10 10.00 A Few Clouds FEW037 80.1 64.9 60% 82 30.32 1026.7
19 17:54 E 10 10.00 Fair CLR 81 64 57% 83 30.31 1026.4
19 16:54 E 13 10.00 A Few Clouds FEW042 82.9 64 53% 84 30.33 1026.9
19 15:54 E 10 10.00 Partly Cloudy SCT045 82.9 64.9 55% 85 30.33 1027.1
19 14:54 E 13 G 22 10.00 Partly Cloudy SCT047 84.9 64.9 51% 87 30.33 1027.1
19 13:54 SE 9 10.00 A Few Clouds FEW050 86 64.9 86 75.9 49% 88 30.34 1027.3
19 12:54 E 8 10.00 A Few Clouds FEW044 84 64.9 53% 86 30.35 1027.6
19 11:54 SE 9 10.00 Partly Cloudy SCT042 SCT050 82.9 64.9 55% 85 30.35 1027.7
19 10:54 SE 8 10.00 Partly Cloudy FEW039 SCT047 82 64 55% 84 30.35 1027.8
19 09:54 E 13 10.00 A Few Clouds FEW030 81 66 61% 83 30.35 1027.8
19 08:54 E 9 10.00 A Few Clouds FEW024 80.1 68 67% 83 30.35 1027.5
19 07:54 E 9 10.00 Fair CLR 75.9 70 75.9 66.9 82% 77 30.33 1027.1
19 06:54 E 8 10.00 Fair CLR 73.9 70 88% 30.32 1026.6
19 05:54 NE 6 10.00 A Few Clouds FEW026 72 68 87% 30.31 1026.2
19 04:54 E 7 10.00 Fair CLR 72 68 87% 30.29 1025.5
19 03:54 E 6 10.00 Fair CLR 71.1 66.9 87% 30.28 1025.3
19 02:54 Calm 10.00 Fair CLR 69.1 64.9 87% 30.27 1025.1
19 01:54 E 3 10.00 Fair CLR 72 66 77 69.1 82% 30.27 1025.1
19 00:54 Calm 10.00 Fair CLR 72 64.9 79% 30.28 1025.3
18 23:54 Calm 10.00 A Few Clouds FEW028 72 64 76% 30.28 1025.2
18 22:54 SE 3 10.00 Fair CLR 72 64 76% 30.29 1025.6
18 21:54 SE 3 10.00 Fair CLR 73 64 74% 30.28 1025.4
18 20:54 SE 7 10.00 Fair CLR 75 64 69% 77 30.26 1024.8
18 19:54 SE 13 10.00 Fair CLR 77 63 84 77 62% 79 30.26 1024.6
18 18:54 SE 13 10.00 Fair CLR 79 64 60% 81 30.24 1023.9
18 17:54 SE 14 10.00 Fair CLR 81 64 57% 83 30.25 1024.2
18 16:54 SE 17 10.00 Fair CLR 82 64.9 56% 84 30.25 1024.4
18 15:54 SE 13 G 22 10.00 Fair CLR 82.9 66.9 59% 86 30.27 1024.8
18 14:54 SE 13 10.00 Fair CLR 84 66.9 57% 87 30.27 1024.9
18 13:54 SE 12 10.00 Fair CLR 84 64.9 84.9 77 53% 86 30.27 1025.0
18 12:54 E 9 10.00 Fair CLR 84 63 49% 85 30.27 1025.1
18 11:54 SE 7 10.00 Fair CLR 82.9 64 53% 84 30.27 1025.0
18 10:54 E 6 10.00 A Few Clouds FEW033 81 64.9 58% 83 30.27 1024.9
18 09:54 E 9 10.00 A Few Clouds FEW025 79 66.9 67% 81 30.27 1024.9
18 08:54 Vrbl 7 10.00 Fair CLR 78.1 66 67% 80 30.27 1024.8
18 07:54 Vrbl 3 10.00 Fair CLR 77 66.9 77 63 71% 79 30.26 1024.7
18 06:54 Calm 10.00 Fair CLR 70 66 87% 30.25 1024.1
18 05:54 Calm 10.00 Fair CLR 64.9 63 93% 30.24 1023.8
18 04:54 Calm 10.00 Fair CLR 64 60.1 87% 30.23 1023.6
18 03:54 Calm 10.00 Fair CLR 66 62.1 87% 30.23 1023.5
18 02:54 Calm 10.00 Fair CLR 64.9 61 87% 30.22 1023.1
18 01:54 S 5 10.00 Fair CLR 68 61 77 68 78% 30.22 1023.4
18 00:54 S 5 10.00 Fair CLR 72 62.1 71% 30.22 1023.2
17 23:54 SE 5 10.00 Fair CLR 72 62.1 71% 30.22 1023.4
17 22:54 S 5 10.00 Fair CLR 72 62.1 71% 30.21 1023.1
17 21:54 S 5 10.00 Fair CLR 73 62.1 69% 30.22 1023.1
17 20:54 SE 5 10.00 Fair CLR 75 62.1 64% 77 30.2 1022.7
17 19:54 SE 9 10.00 Fair CLR 77 61 84 77 58% 79 30.18 1022.0
Date Time (edt) Wind (mph) Vis. (mi.) Weather Sky Cond. Air Dwpt Max. Min. Relative Humidity Wind Chill (°F) Heat Index (°F) altimeter (in) sea level (mb) 1 hr 3 hr 6 hr
6 hour
Temperature (ºF) Pressure Precipitation (in)